{"data":{"norad_id":55750,"epoch":"2026-05-25T03:44:06.669600Z","epoch_age_seconds":65635,"freshness":"FRESH","line1":"1 55750U 23028K   26145.15563275  .00000854  00000+0  79341-4 0  9993","line2":"2 55750  70.0006  51.6755 0002744 269.1629  90.9215 14.98331346177494","mean_motion":14.98331346,"eccentricity":0.0002744,"inclination_deg":70.0006,"raan_deg":51.6755,"arg_perigee_deg":269.1629,"mean_anomaly_deg":90.9215,"bstar":7.9341e-5,"rev_number":17749,"period_min":96.106912789636,"perigee_km":570.14459676645,"apogee_km":573.95886034068,"semimajor_km":6950.1887285536,"source":"CELESTRAK","updated_at":"2026-05-25T13:38:17.879380Z"}}